SCP
0 0 0 0 0 0 0 0 0 0 0 0 0 0 0 0 0 0 0 0 0 0 0 0 0 0 0 0 0 0 0 0 0 0 0 0 0 0
0 0 0 0 0 0 0 0 0 0 0 0 0 0 0 0 0 0 0 0 0 0 0 0 0 0 0 0 0 0 0 0 0 0 0 0 0 0
0 0 0 0 0 0 0 0 0 0 0 0 0 0 0 0 0 0 0 0 0 0 0 0 0 0 0 0 0 0 0 0 0 0 0 0 0 0
0 0 0 0 0 0 0 0 0 0 0 0 0 0 0 0 0 0 0 0 0 0 0 0 0 0 0 0 0 0 0 0 0 0 0 0 0 0
0 0 0 0 0 0 0 0 0 0 0 0 0 0 0 0 0 0 0 0 0 0 0 0 0 0 0 0 0 0 0 0 0 0 0 0 0 0
0 0 0 0 0 0 0 0 0 0 0 0 0 0 0 0 0 0 0 0 0 0 0 0 0 0 0 0 0 0 0 0 0 0 0 0 0 0
0 0 0 0 0 0 0 0 0 0 0 0 0 0 0 0 0 0 0 0 0 0 0 0 0 -0 -0 0 0 0 0 0 0 0 0 0 0 0
0 0 0 0 0 0 0 0 0 0 0 0 0 0 0 0 0 0 0 0 0 0 0 0 0 0 0 0 0 0 0 0 0 0 0 0 0 0
0 0 0 0 0 0 0 0 0 0 0 0 0 0 0 0 0 0 0 0 0 0 0 0 0 0 0 0 0 0 0 0 0 0 0 0 0 0
0 0 0 0 0 0 0 0 0 0 0 0 0 0 0 0 0 0 0 0 0 0 0 0 0 0 0 0 0 0 0 0 0 0 0 0 0 0
0 0 0 0 0 0 0 0 0 0 0 0 0 0 0 0 0 0 0 0 0 0 0 0 0 0 0 0 0 0 0 0 0 0 -0 -0 -0 -0
0 0 0 0 0 0 0 0 0 0 0 0 0 0 0 0 -0 0 0 0 -0 0 0 0 0 0 0 0 0 0 0 0 0 0 -0 -0 -0 0
0 0 0 0 0 0 0 0 0 0 0 0 0 0 0 0 0 0 0 -0 -0 -0 0 0 0 0 0 0 0 0 0 0 0 0 0 -0 0 0
0 0 0 -0 -0 0 0 0 0 0 0 0 0 0 0 0 0 0 0 0 -0 0 0 0 0 0 0 0 0 0 0 0 0 0 0 0 0 0
-0 0 0 0 -0 -0 0 0 0 0 0 0 0 0 0 0 0 0 0 0 0 0 0 0 0 0 0 0 -0 -0 0 0 0 0 0 0 0 0
0 0 0 0 -0 -0 0 0 0 0 0 0 0 0 0 0 0 0 0 0 0 0 0 0 0 0 0 0 0 0 0 0 0 0 0 0 0 0
-0 0 0 0 0 0 0 0 0 0 0 0 0 0 0 0 0 0 0 0 0 0 0 0 -0 0 -0 0 0 0 0 0 0 0 0 0 0 0
0 -0 0 0 0 0 0 0 0 0 0 0 0 0 0 0 0 0 0 0 0 0 0 0 0 0 0 -0 -0 0 0 0 0 0 0 0 0 0
0 0 0 0 0 0 0 0 0 0 0 0 0 0 0 0 0 0 0 0 0 0 0 0 0 0 0 0 -0 -0 0 0 0 0 0 0 0 0
0 0 0 0 0 0 0 0 0 0 0 0 0 0 0 0 0 0 0 0 0 0 0 0 0 0 -0 0 -0 0 -0 -0 0 0 0 0 0 0
0 0 0 0 0 0 0 0 0 0 0 0 0 0 0 0 0 0 0 0 0 0 0 0 0 0 0 0 0 0 0 -0 0 0 0 0 0 0
0 0 0 0 -0 -0 0 0 0 0 -0 0 0 -0 0 0 0 0 0 0 0 0 0 0 0 0 -0 -0 0 0 0 0 0 0 -0 -0 0 0
0 0 0 0 0 -0 -0 -0 0 -0 -0 -0 -0 -0 -0 -0 -0 0 0 0 0 0 0 0 0 0 -0 -0 -0 -0 -0 -0 0 0 0 -0 -0 -0
Wind_Speed_500mb
47 47 47 48 54 56 58 58 54 49 75 75 64 69 72 78 83 82 85 79 74 72 72 71 71 70 60 55 61 54 50 49 54 53 53 57 58 55
50 53 57 62 62 66 65 66 62 64 81 73 67 75 69 68 75 81 85 77 75 73 78 82 79 67 71 65 63 58 51 48 47 48 48 53 54 58
55 58 60 62 66 64 65 65 63 61 74 117 84 77 72 76 78 80 77 79 88 85 80 82 83 75 72 77 75 71 56 52 49 50 57 62 56 55
51 53 55 56 57 56 54 54 53 51 58 87 82 84 74 70 75 81 90 84 83 79 82 94 88 87 75 68 70 71 60 53 54 57 59 56 54 53
51 53 53 54 54 52 51 54 55 57 60 72 90 77 76 67 67 69 64 72 85 91 83 82 77 75 70 68 77 75 73 71 59 57 58 48 42 45
47 47 49 50 51 52 55 56 59 65 68 71 78 82 76 73 69 64 66 67 69 71 80 90 87 87 86 80 59 64 78 72 60 58 55 50 47 43
45 44 45 46 48 51 59 65 65 70 69 68 74 77 71 66 65 69 64 66 59 58 64 73 92 99 99 87 80 60 62 65 59 57 55 53 53 54
42 44 51 53 52 56 58 53 57 66 72 76 84 85 78 74 81 74 69 60 58 55 72 77 51 67 76 69 67 77 63 60 59 58 59 63 64 63
47 51 55 54 54 53 50 52 57 58 64 76 87 91 92 87 81 80 70 74 72 67 55 76 63 60 58 54 49 59 74 71 63 61 68 73 70 65
43 38 45 53 52 57 61 60 60 64 63 70 82 86 85 81 80 76 76 79 77 66 58 62 48 54 50 47 48 54 51 64 64 58 65 73 69 67
34 40 50 61 57 55 63 74 78 81 76 89 87 76 72 71 68 70 79 76 70 73 67 59 55 46 44 39 36 45 54 51 60 65 72 74 72 69
39 48 50 48 49 50 61 58 57 65 73 85 73 59 65 70 67 62 71 80 78 61 69 47 46 34 21 13 22 38 57 66 64 65 71 74 70 70
45 45 43 43 44 47 48 57 72 74 55 61 57 52 43 51 46 36 47 57 58 69 56 24 26 30 34 25 8 8 15 36 54 57 64 72 64 55
31 31 40 48 48 45 53 51 66 64 56 64 75 42 40 40 37 37 27 32 31 40 37 33 33 20 17 15 12 11 8 21 31 38 39 38 39 46
28 37 41 44 49 57 60 68 68 61 56 61 60 55 57 39 22 14 10 7 6 4 18 14 13 12 14 5 12 21 15 3 6 16 27 30 30 40
32 47 50 53 56 62 71 81 84 76 65 59 61 57 58 51 47 23 15 20 15 16 20 21 18 13 10 17 21 28 18 8 1 6 9 19 22 25
40 40 39 57 68 73 76 84 86 85 67 58 63 73 62 63 51 36 27 19 13 11 14 18 20 17 15 19 25 17 16 11 6 7 8 19 22 23
42 45 52 61 71 78 80 83 87 86 86 78 62 56 56 61 61 65 57 48 32 25 15 11 8 9 7 24 17 14 11 9 11 17 26 37 34 35
38 37 46 54 63 68 75 80 83 79 76 79 83 81 67 47 49 47 51 58 56 36 30 23 18 23 24 30 22 25 25 28 22 28 45 56 59 47
41 44 50 54 52 59 66 73 74 74 70 72 70 74 82 76 58 41 33 28 32 31 27 25 17 14 10 19 30 26 20 17 20 27 39 45 47 43
32 40 43 47 49 53 58 62 66 66 66 65 65 68 69 73 75 62 44 35 26 24 21 25 25 24 21 23 24 27 23 19 19 19 20 25 35 40
31 32 36 41 45 50 54 55 55 58 60 62 60 62 58 61 65 64 50 37 36 32 27 25 20 13 6 14 25 26 27 20 12 10 8 12 24 24
33 36 39 41 45 47 49 49 49 49 49 51 53 53 55 52 55 59 47 39 34 31 27 25 23 16 7 16 19 23 23 25 23 22 23 12 11 40
Wind_Direction_500mb
269 266 265 268 268 271 273 275 276 287 288 284 280 277 274 275 273 273 276 278 273 267 263 260 261 259 247 257 260 253 254 260 267 273 283 270 264 267
277 276 276 274 278 277 281 281 280 279 283 282 281 284 281 273 268 266 266 268 269 267 263 264 265 258 251 247 253 249 253 260 263 273 275 286 274 265
285 285 285 284 284 287 285 287 285 284 282 285 290 292 291 288 282 273 267 265 262 257 257 261 262 265 259 252 251 249 253 255 255 265 274 279 277 266
297 296 297 299 298 298 296 293 292 296 295 293 301 302 299 288 285 279 269 266 267 265 262 262 261 260 258 252 246 243 245 249 258 264 273 275 270 254
305 305 305 304 304 302 302 300 300 297 295 297 301 306 308 308 297 281 285 281 267 262 262 264 264 262 265 265 257 253 250 252 255 259 266 264 267 254
306 308 308 307 304 304 302 303 302 299 294 291 294 301 302 307 308 307 293 283 278 274 269 260 262 265 266 260 253 250 250 253 248 248 253 258 258 256
311 314 315 312 310 311 309 306 303 298 294 286 285 288 288 291 294 301 301 284 275 269 265 268 266 261 264 262 256 243 241 240 240 239 243 252 257 258
328 323 320 319 314 306 304 303 303 301 294 291 290 285 285 287 293 294 294 283 284 275 278 279 271 262 263 262 253 241 244 233 232 233 242 255 259 262
322 325 332 343 337 328 319 307 303 307 295 287 283 282 286 289 291 291 287 282 281 285 276 271 272 264 264 256 248 239 236 237 237 243 245 251 255 261
333 342 342 342 344 338 331 323 315 307 305 295 286 288 288 288 284 282 285 286 287 285 280 268 270 274 275 261 250 241 236 239 239 236 236 244 253 260
7 354 351 339 334 328 319 315 312 315 318 306 296 287 283 282 281 278 273 272 275 278 281 270 279 283 283 265 250 233 221 218 221 230 239 246 251 259
357 358 353 341 337 335 331 333 323 333 342 333 319 295 282 285 288 273 269 263 258 265 272 255 268 264 280 282 256 233 225 230 234 237 244 251 255 261
359 359 0 7 5 355 343 338 333 344 349 337 337 336 314 309 307 285 279 270 260 254 256 253 259 248 249 262 19 122 218 232 236 242 249 257 259 246
6 17 26 26 21 8 356 357 3 13 10 354 357 329 327 319 310 311 289 277 278 274 269 231 223 227 227 241 245 323 306 223 235 241 243 242 232 229
37 43 35 30 26 20 22 21 25 21 14 9 18 6 13 14 351 2 42 339 279 216 190 210 230 275 303 186 325 321 295 226 263 245 238 231 229 224
61 54 42 38 32 29 28 32 34 28 23 25 22 27 27 39 38 48 69 69 102 135 157 174 198 237 254 294 295 303 289 242 342 276 206 197 197 198
49 43 31 32 32 30 32 33 34 37 45 38 27 28 43 39 41 36 38 45 58 103 137 178 206 227 261 281 286 283 242 221 206 207 176 177 167 173
53 42 39 35 32 27 26 32 37 39 36 41 39 32 34 36 44 45 54 59 65 75 89 111 142 203 126 90 80 93 108 143 164 167 154 147 133 130
53 38 40 35 28 25 22 27 31 38 40 41 44 41 26 24 32 43 57 60 64 87 80 96 124 133 110 96 85 87 94 94 98 129 126 121 122 123
35 30 22 29 23 22 19 19 27 29 35 36 35 37 40 32 36 35 34 48 56 59 70 66 83 129 85 113 109 87 63 73 99 97 98 109 105 113
15 16 9 5 12 16 15 15 18 24 26 29 27 30 30 33 27 32 37 49 45 43 55 53 53 65 98 103 104 102 93 86 107 108 106 114 123 118
8 16 7 3 4 8 5 3 8 12 18 24 25 26 27 31 31 23 28 39 40 37 29 28 32 42 89 134 138 131 116 117 136 193 175 157 140 136
8 6 2 358 357 356 353 353 358 3 6 13 20 22 24 27 30 30 23 26 20 18 20 12 22 29 98 127 128 133 127 123 125 136 124 119 139 146
Wind_Speed_850mb
47 47 47 48 54 56 58 58 54 49 75 75 64 69 72 78 83 82 85 79 74 72 72 71 71 70 60 55 61 54 50 49 54 53 53 57 58 55
50 53 57 62 62 66 65 66 62 64 81 73 67 75 69 68 75 81 85 77 75 73 78 82 79 67 71 65 63 58 51 48 47 48 48 53 54 58
55 58 60 62 66 64 65 65 63 61 74 117 84 77 72 76 78 80 77 79 88 85 80 82 83 75 72 77 75 71 56 52 49 50 57 62 56 55
51 53 55 56 57 56 54 54 53 51 58 87 82 84 74 70 75 81 90 84 83 79 82 94 88 87 75 68 70 71 60 53 54 57 59 56 54 53
51 53 53 54 54 52 51 54 55 57 60 72 90 77 76 67 67 69 64 72 85 91 83 82 77 75 70 68 77 75 73 71 59 57 58 48 42 45
47 47 49 50 51 52 55 56 59 65 68 71 78 82 76 73 69 64 66 67 69 71 80 90 87 87 86 80 59 64 78 72 60 58 55 50 47 43
45 44 45 46 48 51 59 65 65 70 69 68 74 77 71 66 65 69 64 66 59 58 64 73 92 99 99 87 80 60 62 65 59 57 55 53 53 54
42 44 51 53 52 56 58 53 57 66 72 76 84 85 78 74 81 74 69 60 58 55 72 77 51 67 76 69 67 77 63 60 59 58 59 63 64 63
47 51 55 54 54 53 50 52 57 58 64 76 87 91 92 87 81 80 70 74 72 67 55 76 63 60 58 54 49 59 74 71 63 61 68 73 70 65
43 38 45 53 52 57 61 60 60 64 63 70 82 86 85 81 80 76 76 79 77 66 58 62 48 54 50 47 48 54 51 64 64 58 65 73 69 67
34 40 50 61 57 55 63 74 78 81 76 89 87 76 72 71 68 70 79 76 70 73 67 59 55 46 44 39 36 45 54 51 60 65 72 74 72 69
39 48 50 48 49 50 61 58 57 65 73 85 73 59 65 70 67 62 71 80 78 61 69 47 46 34 21 13 22 38 57 66 64 65 71 74 70 70
45 45 43 43 44 47 48 57 72 74 55 61 57 52 43 51 46 36 47 57 58 69 56 24 26 30 34 25 8 8 15 36 54 57 64 72 64 55
31 31 40 48 48 45 53 51 66 64 56 64 75 42 40 40 37 37 27 32 31 40 37 33 33 20 17 15 12 11 8 21 31 38 39 38 39 46
28 37 41 44 49 57 60 68 68 61 56 61 60 55 57 39 22 14 10 7 6 4 18 14 13 12 14 5 12 21 15 3 6 16 27 30 30 40
32 47 50 53 56 62 71 81 84 76 65 59 61 57 58 51 47 23 15 20 15 16 20 21 18 13 10 17 21 28 18 8 1 6 9 19 22 25
40 40 39 57 68 73 76 84 86 85 67 58 63 73 62 63 51 36 27 19 13 11 14 18 20 17 15 19 25 17 16 11 6 7 8 19 22 23
42 45 52 61 71 78 80 83 87 86 86 78 62 56 56 61 61 65 57 48 32 25 15 11 8 9 7 24 17 14 11 9 11 17 26 37 34 35
38 37 46 54 63 68 75 80 83 79 76 79 83 81 67 47 49 47 51 58 56 36 30 23 18 23 24 30 22 25 25 28 22 28 45 56 59 47
41 44 50 54 52 59 66 73 74 74 70 72 70 74 82 76 58 41 33 28 32 31 27 25 17 14 10 19 30 26 20 17 20 27 39 45 47 43
32 40 43 47 49 53 58 62 66 66 66 65 65 68 69 73 75 62 44 35 26 24 21 25 25 24 21 23 24 27 23 19 19 19 20 25 35 40
31 32 36 41 45 50 54 55 55 58 60 62 60 62 58 61 65 64 50 37 36 32 27 25 20 13 6 14 25 26 27 20 12 10 8 12 24 24
33 36 39 41 45 47 49 49 49 49 49 51 53 53 55 52 55 59 47 39 34 31 27 25 23 16 7 16 19 23 23 25 23 22 23 12 11 40
Wind_Direction_850mb
269 266 265 268 268 271 273 275 276 287 288 284 280 277 274 275 273 273 276 278 273 267 263 260 261 259 247 257 260 253 254 260 267 273 283 270 264 267
277 276 276 274 278 277 281 281 280 279 283 282 281 284 281 273 268 266 266 268 269 267 263 264 265 258 251 247 253 249 253 260 263 273 275 286 274 265
285 285 285 284 284 287 285 287 285 284 282 285 290 292 291 288 282 273 267 265 262 257 257 261 262 265 259 252 251 249 253 255 255 265 274 279 277 266
297 296 297 299 298 298 296 293 292 296 295 293 301 302 299 288 285 279 269 266 267 265 262 262 261 260 258 252 246 243 245 249 258 264 273 275 270 254
305 305 305 304 304 302 302 300 300 297 295 297 301 306 308 308 297 281 285 281 267 262 262 264 264 262 265 265 257 253 250 252 255 259 266 264 267 254
306 308 308 307 304 304 302 303 302 299 294 291 294 301 302 307 308 307 293 283 278 274 269 260 262 265 266 260 253 250 250 253 248 248 253 258 258 256
311 314 315 312 310 311 309 306 303 298 294 286 285 288 288 291 294 301 301 284 275 269 265 268 266 261 264 262 256 243 241 240 240 239 243 252 257 258
328 323 320 319 314 306 304 303 303 301 294 291 290 285 285 287 293 294 294 283 284 275 278 279 271 262 263 262 253 241 244 233 232 233 242 255 259 262
322 325 332 343 337 328 319 307 303 307 295 287 283 282 286 289 291 291 287 282 281 285 276 271 272 264 264 256 248 239 236 237 237 243 245 251 255 261
333 342 342 342 344 338 331 323 315 307 305 295 286 288 288 288 284 282 285 286 287 285 280 268 270 274 275 261 250 241 236 239 239 236 236 244 253 260
7 354 351 339 334 328 319 315 312 315 318 306 296 287 283 282 281 278 273 272 275 278 281 270 279 283 283 265 250 233 221 218 221 230 239 246 251 259
357 358 353 341 337 335 331 333 323 333 342 333 319 295 282 285 288 273 269 263 258 265 272 255 268 264 280 282 256 233 225 230 234 237 244 251 255 261
359 359 0 7 5 355 343 338 333 344 349 337 337 336 314 309 307 285 279 270 260 254 256 253 259 248 249 262 19 122 218 232 236 242 249 257 259 246
6 17 26 26 21 8 356 357 3 13 10 354 357 329 327 319 310 311 289 277 278 274 269 231 223 227 227 241 245 323 306 223 235 241 243 242 232 229
37 43 35 30 26 20 22 21 25 21 14 9 18 6 13 14 351 2 42 339 279 216 190 210 230 275 303 186 325 321 295 226 263 245 238 231 229 224
61 54 42 38 32 29 28 32 34 28 23 25 22 27 27 39 38 48 69 69 102 135 157 174 198 237 254 294 295 303 289 242 342 276 206 197 197 198
49 43 31 32 32 30 32 33 34 37 45 38 27 28 43 39 41 36 38 45 58 103 137 178 206 227 261 281 286 283 242 221 206 207 176 177 167 173
53 42 39 35 32 27 26 32 37 39 36 41 39 32 34 36 44 45 54 59 65 75 89 111 142 203 126 90 80 93 108 143 164 167 154 147 133 130
53 38 40 35 28 25 22 27 31 38 40 41 44 41 26 24 32 43 57 60 64 87 80 96 124 133 110 96 85 87 94 94 98 129 126 121 122 123
35 30 22 29 23 22 19 19 27 29 35 36 35 37 40 32 36 35 34 48 56 59 70 66 83 129 85 113 109 87 63 73 99 97 98 109 105 113
15 16 9 5 12 16 15 15 18 24 26 29 27 30 30 33 27 32 37 49 45 43 55 53 53 65 98 103 104 102 93 86 107 108 106 114 123 118
8 16 7 3 4 8 5 3 8 12 18 24 25 26 27 31 31 23 28 39 40 37 29 28 32 42 89 134 138 131 116 117 136 193 175 157 140 136
8 6 2 358 357 356 353 353 358 3 6 13 20 22 24 27 30 30 23 26 20 18 20 12 22 29 98 127 128 133 127 123 125 136 124 119 139 146